Weather History for CYYG - November, 2011

Change the Weather History Date:

Tuesday, November 22, 2011

  Actual Average Record
Temperature  
Mean Temperature 25 °F -  
Max Temperature 30 °F 34 °F 57 °F (2005)
Min Temperature 20 °F 20 °F 18 °F (2014)
Degree Days  
Heating Degree Days 40    
Moisture  
Dew Point 15 °F    
Average Humidity 64    
Maximum Humidity 80    
Minimum Humidity 39    
Precipitation  
Precipitation 0.00 in 0.17 in - ()
Sea Level Pressure  
Sea Level Pressure 30.35 in    
Wind  
Wind Speed 5 mph ()    
Max Wind Speed 9 mph    
Max Gust Speed -    
Visibility 15.0 miles    
Events      
Averages and records for this station are not official NWS values.
T = Trace of Precipitation, MM = Missing Value Source: Averaged Metar Reports

Daily Weather History Graph

Daily Weather History Graph

Search for Another Location

Airport or City:

Trip Planner

Search our weather history database for the weather conditions in past years. The results will help you decide how hot, cold, wet, or windy it might be!

Date:

Astronomy

Nov. 22, 2011 Rise Set
Actual Time 7:23 AM AST 4:33 PM AST
Civil Twilight 6:49 AM AST 5:06 PM AST
Nautical Twilight 6:12 AM AST 5:43 PM AST
Astronomical Twilight 5:37 AM AST 6:19 PM AST
Moon 4:00 AM AST (11/22) 2:35 PM AST (11/22)
Length of Visible Light 10h 17m
Length of Day
9h 10m
Waning Crescent, 10% of the Moon is Illuminated
Nov 22
Waning Crescent
Nov 25
New
Dec 2
First Quarter
Dec 10
Full
Dec 17
Last Quarter

Hourly Weather History & Observations

Time (AST) Temp. Windchill Dew Point Humidity Pressure Visibility Wind Dir Wind Speed Gust Speed Precip Events Conditions
12:00 AM 24.8 °F 19.1 °F 15.8 °F 69% 30.35 in 15.0 mi West 4.6 mph - N/A   Mostly Cloudy
1:00 AM 24.8 °F 19.1 °F 17.6 °F 74% 30.34 in 15.0 mi West 4.6 mph - N/A   Mostly Cloudy
2:00 AM 24 °F - 17 °F 63% 30.34 in 15 mi West 4.6 mph - -   Partly Cloudy
2:00 AM 24.8 °F 19.1 °F 15.8 °F 69% 30.34 in 15.0 mi West 4.6 mph - N/A   Mostly Cloudy
3:00 AM 23.0 °F 14.7 °F 15.8 °F 74% 30.35 in 15.0 mi West 6.9 mph - N/A   Scattered Clouds
4:00 AM 23.0 °F 17.0 °F 15.8 °F 74% 30.35 in 15.0 mi WNW 4.6 mph - N/A   Partly Cloudy
5:00 AM 21.2 °F 13.6 °F 14.0 °F 74% 30.35 in 15.0 mi WNW 5.8 mph - N/A   Partly Cloudy
6:00 AM 21.2 °F 13.6 °F 14.0 °F 74% 30.36 in 15.0 mi NW 5.8 mph - N/A   Partly Cloudy
7:00 AM 21.2 °F 11.7 °F 14.0 °F 74% 30.37 in 15.0 mi NW 8.1 mph - N/A   Partly Cloudy
8:00 AM 22 °F - 16 °F 68% 30.39 in 15 mi WNW 5.8 mph - -   Scattered Clouds
8:00 AM 21.2 °F 13.6 °F 15.8 °F 80% 30.39 in 15.0 mi WNW 5.8 mph - N/A   Partly Cloudy
12:00 PM 28.4 °F 20.4 °F 15.8 °F 59% 30.36 in 15.0 mi WNW 8.1 mph - N/A   Partly Cloudy
1:00 PM 28.4 °F 19.7 °F 14.0 °F 55% 30.35 in 15.0 mi NW 9.2 mph - N/A   Partly Cloudy
2:00 PM 30 °F - 15 °F 39% 30.33 in 15 mi WNW 8.1 mph - -   Scattered Clouds
2:00 PM 30.2 °F 22.6 °F 14.0 °F 51% 30.33 in 15.0 mi WNW 8.1 mph - N/A   Partly Cloudy
3:00 PM 30.2 °F 22.6 °F 15.8 °F 55% 30.32 in 15.0 mi West 8.1 mph - N/A   Partly Cloudy
5:00 PM 24.8 °F 19.1 °F 12.2 °F 59% 30.34 in 15.0 mi West 4.6 mph - N/A   Clear
7:00 PM 24.8 °F 20.5 °F 12.2 °F 59% 30.36 in 15.0 mi West 3.5 mph - N/A   Clear
8:00 PM 25 °F - 12 °F 45% 30.37 in 15 mi West 5.8 mph - -  
8:00 PM 24.8 °F 17.9 °F 12.2 °F 59% 30.37 in 15.0 mi West 5.8 mph - N/A   Clear
9:00 PM 24.8 °F 19.1 °F 14.0 °F 64% 30.38 in 15.0 mi WNW 4.6 mph - N/A   Clear
11:00 PM 24.8 °F 19.1 °F 14.0 °F 64% 30.36 in 15.0 mi West 4.6 mph - N/A   Clear